Kezdőlap
METAR-TAF:

METAR-TAF

Repülőterek :

Platteville, Wisconsin, Amerikai Egyesült Államok

földrajzi szélesség: 42-41-22N, földrajzi hosszúság: 090-26-40W, magasság: 312 m

Jelenlegi meteorológiai megfigyelések

A jelentés 26 perccel ezelõtt készült, 13:15 UTC
Szélcsend
Hőmérséklet 24°C
Páratartalom 100%
Légköri nyomás 1017 hPa
Látótávolság: 11.3 km
Szakadozott felhőzet 3200 lábon

METAR: KPVB 281315Z AUTO 00000KT 7SM BKN032 24/24 A3004 RMK AO1 T02350235

Idő: 08:41 (13:41 UTC)


TAF: hiányzik

Meteorológiai megfigyelések és előrejelzések több, mint 4000 repülőtéren (METAR és TAF jelentéseket).

A térképen piros és sárga pontok jelzik az elérhető meteorológiai állomásokat.

Mozgassa az egeret a pont fölött, hogy megjelenjen az állomás neve.

Azután kattintson az időjárási megfigyelések és előrejelzések megtekintéséhez.

A térkép megváltoztatása: kattintson a fekete keresztel jelölt zöld gombra ráközelítéshez, a vonallal jelölt zöld gombra távolításhoz, vagy a zöld nyilakra a szomszédos térképek eléréséhez.


METAR-TAF: